| time (UTC) | temp C | wind direction | speed KPH | gust KPH | rain 1hr cm | rain 24hr cm | rain mn cm | humidity % | barometer mb |
| 20260504160405 | 10 | 320 | 4.8 | 8.0 | 0.00 | 0.71 | 0.69 | 89 | 1018.8 |
| 20260504150905 | 11 | 306 | 8.0 | 12.9 | 0.00 | 0.71 | 0.69 | 89 | 1018.4 |
| 20260504150405 | 11 | 308 | 8.0 | 12.9 | 0.00 | 0.71 | 0.69 | 89 | 1018.4 |
| 20260504140905 | 11 | 316 | 8.0 | 11.3 | 0.00 | 0.71 | 0.69 | 89 | 1018.2 |
| 20260504140405 | 11 | 320 | 8.0 | 12.9 | 0.00 | 0.71 | 0.69 | 89 | 1018.2 |
| 20260504130405 | 10 | 316 | 4.8 | 8.0 | 0.00 | 0.71 | 0.69 | 88 | 1018.0 |
| 20260504110405 | 11 | 320 | 9.7 | 14.5 | 0.00 | 0.71 | 0.69 | 87 | 1016.7 |
| 20260504100405 | 12 | 307 | 4.8 | 11.3 | 0.00 | 0.71 | 0.69 | 85 | 1016.0 |
| 20260504081905 | 13 | 273 | 9.7 | 20.9 | 0.03 | 0.71 | 0.69 | 86 | 1014.4 |
| 20260504081405 | 13 | 279 | 9.7 | 19.3 | 0.05 | 0.71 | 0.69 | 86 | 1014.2 |
| 20260504080905 | 13 | 282 | 11.3 | 19.3 | 0.08 | 0.71 | 0.69 | 86 | 1014.1 |
| 20260504080404 | 13 | 282 | 11.3 | 19.3 | 0.10 | 0.71 | 0.69 | 86 | 1014.1 |
| 20260504070405 | 15 | 237 | 12.9 | 25.7 | 0.05 | 0.61 | 0.58 | 85 | 1013.5 |
| 20260504050405 | 16 | 275 | 19.3 | 32.2 | 0.00 | 0.28 | 0.25 | 79 | 1011.5 |
| 20260504045905 | 16 | 288 | 24.1 | 37.0 | 0.00 | 0.28 | 0.25 | 79 | 1011.4 |
| 20260504045404 | 16 | 275 | 22.5 | 40.2 | 0.00 | 0.28 | 0.25 | 80 | 1011.4 |
| 20260504044905 | 16 | 285 | 16.1 | 24.1 | 0.00 | 0.28 | 0.25 | 81 | 1011.2 |
| 20260504044405 | 15 | 289 | 19.3 | 29.0 | 0.00 | 0.28 | 0.25 | 81 | 1011.2 |
| 20260504043904 | 15 | 282 | 19.3 | 29.0 | 0.00 | 0.28 | 0.25 | 81 | 1011.2 |
| 20260504043404 | 15 | 279 | 16.1 | 29.0 | 0.00 | 0.28 | 0.25 | 81 | 1011.2 |
| 20260504042905 | 15 | 284 | 27.4 | 45.1 | 0.00 | 0.28 | 0.25 | 79 | 1011.1 |
| 20260504042404 | 16 | 280 | 24.1 | 37.0 | 0.00 | 0.28 | 0.25 | 78 | 1011.1 |
| 20260504041904 | 16 | 264 | 19.3 | 29.0 | 0.00 | 0.28 | 0.25 | 77 | 1010.9 |
| 20260504041405 | 16 | 276 | 20.9 | 41.8 | 0.00 | 0.28 | 0.25 | 77 | 1010.8 |
| 20260504040905 | 17 | 266 | 25.7 | 46.7 | 0.00 | 0.28 | 0.25 | 73 | 1010.8 |
| 20260504040404 | 17 | 283 | 32.2 | 41.8 | 0.00 | 0.28 | 0.25 | 72 | 1010.4 |
| 20260504035905 | 18 | 285 | 24.1 | 41.8 | 0.00 | 0.28 | 0.25 | 72 | 1010.4 |
| 20260504035404 | 17 | 291 | 20.9 | 33.8 | 0.00 | 0.28 | 0.25 | 73 | 1010.3 |
| 20260504034904 | 17 | 291 | 25.7 | 41.8 | 0.00 | 0.28 | 0.25 | 71 | 1010.4 |
| 20260504034405 | 17 | 295 | 27.4 | 41.8 | 0.00 | 0.28 | 0.25 | 71 | 1010.3 |
| 20260504033904 | 17 | 275 | 29.0 | 41.8 | 0.03 | 0.28 | 0.25 | 72 | 1010.3 |
| 20260504033405 | 17 | 287 | 33.8 | 41.8 | 0.03 | 0.28 | 0.25 | 74 | 1010.2 |
| 20260504032904 | 17 | 292 | 25.7 | 40.2 | 0.03 | 0.28 | 0.25 | 77 | 1010.2 |
| 20260504032405 | 17 | 288 | 29.0 | 41.8 | 0.03 | 0.28 | 0.25 | 76 | 1010.2 |
| 20260504031904 | 17 | 297 | 22.5 | 40.2 | 0.03 | 0.28 | 0.25 | 76 | 1010.3 |
| 20260504031404 | 16 | 287 | 25.7 | 40.2 | 0.03 | 0.28 | 0.25 | 78 | 1010.4 |
| 20260504030904 | 16 | 290 | 25.7 | 40.2 | 0.03 | 0.28 | 0.25 | 80 | 1010.4 |
| 20260504030404 | 16 | 292 | 20.9 | 38.6 | 0.03 | 0.28 | 0.25 | 82 | 1010.4 |
| 20260504025904 | 16 | 274 | 22.5 | 37.0 | 0.03 | 0.28 | 0.25 | 82 | 1010.5 |
| 20260504025404 | 15 | 277 | 22.5 | 33.8 | 0.03 | 0.28 | 0.25 | 84 | 1010.5 |
| 20260504024904 | 14 | 293 | 20.9 | 37.0 | 0.03 | 0.28 | 0.25 | 85 | 1010.6 |
| 20260504024404 | 15 | 296 | 20.9 | 33.8 | 0.03 | 0.28 | 0.25 | 84 | 1010.7 |
| 20260504023904 | 15 | 283 | 22.5 | 35.4 | 0.00 | 0.25 | 0.23 | 83 | 1010.8 |
| 20260504023405 | 15 | 277 | 25.7 | 35.4 | 0.00 | 0.25 | 0.23 | 82 | 1010.8 |
| 20260504022904 | 15 | 294 | 16.1 | 32.2 | 0.00 | 0.25 | 0.23 | 82 | 1010.8 |
| 20260504022404 | 15 | 287 | 19.3 | 27.4 | 0.00 | 0.25 | 0.23 | 81 | 1010.8 |
| 20260504021905 | 15 | 300 | 20.9 | 35.4 | 0.00 | 0.25 | 0.23 | 79 | 1010.8 |
| 20260504021405 | 16 | 303 | 19.3 | 37.0 | 0.05 | 0.25 | 0.23 | 84 | 1010.8 |
| 20260504020904 | 16 | 297 | 19.3 | 27.4 | 0.10 | 0.25 | 0.23 | 85 | 1010.6 |
| 20260504020404 | 15 | 298 | 17.7 | 32.2 | 0.15 | 0.25 | 0.23 | 86 | 1010.6 |
| 20260504015905 | 15 | 306 | 16.1 | 24.1 | 0.15 | 0.25 | 0.23 | 87 | 1010.6 |
| 20260504015405 | 15 | 320 | 12.9 | 20.9 | 0.15 | 0.25 | 0.23 | 87 | 1010.6 |
| 20260504014904 | 14 | 317 | 9.7 | 16.1 | 0.15 | 0.25 | 0.23 | 87 | 1010.6 |
| 20260504014404 | 13 | 321 | 11.3 | 16.1 | 0.15 | 0.25 | 0.23 | 87 | 1010.7 |
| 20260504013904 | 13 | 313 | 9.7 | 19.3 | 0.15 | 0.25 | 0.23 | 87 | 1010.7 |
| 20260504013404 | 13 | 308 | 14.5 | 20.9 | 0.15 | 0.25 | 0.23 | 86 | 1010.8 |
| 20260504012904 | 13 | 314 | 14.5 | 20.9 | 0.18 | 0.25 | 0.23 | 87 | 1010.7 |
| 20260504012405 | 13 | 314 | 19.3 | 25.7 | 0.18 | 0.25 | 0.23 | 87 | 1010.7 |
| 20260504011905 | 14 | 321 | 20.9 | 37.0 | 0.18 | 0.25 | 0.23 | 87 | 1010.6 |
| 20260504011404 | 15 | 311 | 19.3 | 38.6 | 0.15 | 0.23 | 0.20 | 86 | 1010.5 |
| 20260504010904 | 15 | 325 | 25.7 | 37.0 | 0.10 | 0.15 | 0.15 | 85 | 1010.4 |
| 20260504010404 | 15 | 341 | 16.1 | 22.5 | 0.05 | 0.10 | 0.08 | 87 | 1010.2 |
| 20260504005904 | 15 | 326 | 16.1 | 22.5 | 0.05 | 0.10 | 0.08 | 87 | 1010.3 |
| 20260504005405 | 15 | 335 | 19.3 | 29.0 | 0.08 | 0.10 | 0.08 | 87 | 1010.3 |
| 20260504004904 | 15 | 332 | 16.1 | 25.7 | 0.08 | 0.10 | 0.08 | 87 | 1010.3 |
| 20260504004405 | 15 | 327 | 17.7 | 25.7 | 0.08 | 0.10 | 0.08 | 87 | 1010.3 |
| 20260504003905 | 14 | 345 | 19.3 | 32.2 | 0.08 | 0.10 | 0.08 | 87 | 1010.3 |
| 20260504003404 | 14 | 333 | 20.9 | 27.4 | 0.08 | 0.10 | 0.08 | 87 | 1010.3 |
| 20260504002904 | 14 | 339 | 19.3 | 27.4 | 0.03 | 0.08 | 0.05 | 88 | 1010.3 |
| 20260504002404 | 13 | 326 | 14.5 | 24.1 | 0.03 | 0.08 | 0.05 | 88 | 1010.3 |
| 20260504001904 | 13 | 329 | 19.3 | 24.1 | 0.03 | 0.08 | 0.05 | 88 | 1010.3 |
| 20260504001404 | 13 | 324 | 14.5 | 19.3 | 0.03 | 0.08 | 0.05 | 88 | 1010.3 |
| 20260504000904 | 13 | 334 | 20.9 | 32.2 | 0.05 | 0.05 | 0.05 | 87 | 1010.2 |
| 20260504000404 | 13 | 329 | 16.1 | 25.7 | 0.03 | 0.05 | 0.03 | 87 | 1010.2 |
| 20260503235904 | 13 | 328 | 17.7 | 24.1 | 0.03 | 0.05 | 0.03 | 87 | 1010.2 |
| 20260503235404 | 13 | 327 | 16.1 | 25.7 | 0.00 | 0.03 | 0.00 | 87 | 1010.1 |
| 20260503234904 | 13 | 337 | 20.9 | 27.4 | 0.00 | 0.03 | 0.00 | 88 | 1010.1 |
| 20260503234405 | 13 | 334 | 17.7 | 29.0 | 0.03 | 0.03 | 0.00 | 87 | 1010.0 |
| 20260503233904 | 13 | 343 | 17.7 | 27.4 | 0.03 | 0.03 | 0.00 | 88 | 1010.0 |
| 20260503233404 | 13 | 338 | 14.5 | 24.1 | 0.03 | 0.05 | 0.00 | 88 | 1010.0 |
| 20260503232904 | 12 | 340 | 16.1 | 24.1 | 0.03 | 0.05 | 0.05 | 88 | 1009.9 |
| 20260503232404 | 12 | 347 | 14.5 | 22.5 | 0.03 | 0.05 | 0.05 | 88 | 1009.9 |
| 20260503231904 | 12 | 333 | 12.9 | 22.5 | 0.03 | 0.05 | 0.05 | 88 | 1009.9 |
| 20260503231404 | 12 | 339 | 19.3 | 32.2 | 0.03 | 0.05 | 0.05 | 88 | 1009.9 |
| 20260503230904 | 12 | 339 | 17.7 | 24.1 | 0.03 | 0.05 | 0.05 | 88 | 1009.9 |
| 20260503230404 | 12 | 339 | 16.1 | 22.5 | 0.03 | 0.05 | 0.05 | 88 | 1009.9 |
| 20260503225905 | 12 | 337 | 19.3 | 27.4 | 0.03 | 0.05 | 0.05 | 88 | 1009.8 |
| 20260503225404 | 12 | 353 | 14.5 | 24.1 | 0.03 | 0.05 | 0.05 | 88 | 1009.7 |
| 20260503224904 | 12 | 338 | 14.5 | 27.4 | 0.03 | 0.05 | 0.05 | 88 | 1009.7 |
| 20260503224404 | 12 | 350 | 12.9 | 22.5 | 0.00 | 0.03 | 0.03 | 87 | 1009.6 |
| 20260503223905 | 12 | 352 | 14.5 | 24.1 | 0.00 | 0.03 | 0.03 | 87 | 1009.6 |
| 20260503223403 | 12 | 343 | 16.1 | 27.4 | 0.00 | 0.03 | 0.03 | 87 | 1009.6 |